STARLINK-1402, 45685

Orbit data source: Space-Track

STARLINK-1402, 45685 is a payload satellite owned by SpaceX/Seattle (US) in LEO that was launched on Thu, 04 Jun 2020 UTC via an FALCON 9 launch vehicle from the Air Force Eastern Test Range (AFETR). Payload-class satellites include a variety of spacecraft equipped with specific instruments for various scientific and technological missions. These include communications satellites like Starlink; space stations such as the ISS; scientific satellites like the Hubble; Earth observation satellites from companies like Planet Labs, Umbra, and HawkEye 360; GPS; miniature CubeSats for education and research; and military/defense satellites.

Loading next visibility...
Identifier
45685, 2020-035AE
Orbit
LEO
Country
Flag of USUS
Related business
Manufacturer
SpaceX/Seattle
Mission
Partially operational Commercial Communications
Bus & Motor
STARLINK, Unknown motor
Mass
260 kg wet, ~248 kg dry
Launch date (UTC)
2020-06-04 (5 years ago)
Launch vehicle
FALCON 9
Launch site
Air Force Eastern Test Range (AFETR)
Object type
Payload
Rocket body
Debris
Shape & HBR
Box + 1 Pan, 10.1 m
Radar Cross Section
13.562 m², Large (>1 m²)

Expand to show TLE details & history
Last TLE update: 18 hours ago

TLE from 18 hours ago
0 STARLINK-1402
1 45685U 20035AE  25300.83334491  .00898891  00000-0  32877-1 0  9994
2 45685  53.0531 286.3054 0001634  99.7103  57.0705 15.25108354  5720
Epoch: 2025-10-27T20:00Z
TLE epoch observation values (Epoch: 2025-10-27T20:00:01.000Z)
Latitude
18.38691°
Longitude
115.47585°
Altitude
490.188 km
Speed
7.623 km/s
True Right ascension
06h 07m 38s
True Declination
18° 16' 49"
Sunlit
Object was in full shadow at epoch
Visualization orbit readout
Latitude
Unknown
Longitude
Unknown
Altitude
Unknown
Speed
Unknown
Apparent Right ascension
Unknown
Apparent Declination
Unknown
Sunlit
N/A
Visualization observer readout
Local Sidereal Time
09:09:09
Azimuth
Unknown
Elevation
Unknown
Doppler factor
Unknown
Orbital elements
Apogee altitude
491.856 km
Perigee altitude
489.611 km
Semi-major axis
6,868.87 km
Eccentricity
0.00016
Inclination
53.0531°
RAAN
286.3054°
Arg. of periapsis
99.7103°
True anomaly
57.08622°
Mean anomaly
57.0705°
Eccentric anomaly
57.07836°
Mean motion
3.81255 °/min
Orbital period
94.43 mins
BSTAR
0.032877
Loading maneuver chart data...
Computing Atmospheric mass density...

Documentation

Showing up to 5 results
|